| time (UTC) | temp C | wind direction | speed KPH | gust KPH | rain 1hr cm | rain 24hr cm | rain mn cm | humidity % | barometer mb |
| 20260506153104 | 12 | 360 | 4.8 | 17.7 | 0.00 | 0.00 | 0.00 | 41 | 1016.4 |
| 20260506151542 | 11 | 360 | 12.9 | 22.5 | 0.00 | 0.00 | 0.00 | 41 | 1016.5 |
| 20260506150034 | 12 | 360 | 6.4 | 19.3 | 0.00 | 0.00 | 0.00 | 40 | 1016.6 |
| 20260506144529 | 11 | 313 | 6.4 | 20.9 | 0.00 | 0.00 | 0.00 | 39 | 1016.5 |
| 20260506143026 | 12 | 360 | 4.8 | 12.9 | 0.00 | 0.00 | 0.00 | 39 | 1016.7 |
| 20260506141519 | 11 | 360 | 3.2 | 11.3 | 0.00 | 0.00 | 0.00 | 39 | 1016.6 |
| 20260506140017 | 11 | 360 | 1.6 | 6.4 | 0.00 | 0.00 | 0.00 | 38 | 1016.6 |
| 20260506134511 | 10 | 317 | 0.0 | 0.0 | 0.00 | 0.00 | 0.00 | 32 | 1016.4 |
| 20260506133006 | 10 | 338 | 0.0 | 0.0 | 0.00 | 0.00 | 0.00 | 30 | 1016.0 |
| 20260506131502 | 9 | 360 | 0.0 | 0.0 | 0.00 | 0.00 | 0.00 | 28 | 1015.9 |
| 20260506124554 | 8 | 5 | 0.0 | 0.0 | 0.00 | 0.00 | 0.00 | 25 | 1015.7 |
| 20260506123050 | 8 | 18 | 0.0 | 0.0 | 0.00 | 0.00 | 0.00 | 19 | 1015.4 |
| 20260506121545 | 7 | 18 | 0.0 | 0.0 | 0.00 | 0.00 | 0.00 | 11 | 1015.3 |
| 20260506120042 | 7 | 18 | 0.0 | 0.0 | 0.00 | 0.00 | 0.00 | 5 | 1015.0 |
| 20260506114536 | 6 | 18 | 0.0 | 0.0 | 0.00 | 0.00 | 0.00 | 100 | 1015.0 |
| 20260506113039 | 6 | 18 | 0.0 | 0.0 | 0.00 | 0.00 | 0.00 | 100 | 1014.9 |
| 20260506111531 | 6 | 18 | 0.0 | 0.0 | 0.00 | 0.00 | 0.00 | 100 | 1014.8 |
| 20260506110023 | 6 | 18 | 0.0 | 0.0 | 0.00 | 0.00 | 0.00 | 100 | 1014.7 |
| 20260506104521 | 6 | 25 | 0.0 | 0.0 | 0.00 | 0.00 | 0.00 | 2 | 1014.5 |
| 20260506103015 | 6 | 25 | 0.0 | 0.0 | 0.00 | 0.00 | 0.00 | 12 | 1014.3 |
| 20260506101511 | 6 | 25 | 0.0 | 0.0 | 0.00 | 0.00 | 0.00 | 21 | 1013.9 |
| 20260506100011 | 6 | 25 | 0.0 | 0.0 | 0.00 | 0.00 | 0.00 | 27 | 1013.8 |
| 20260506094506 | 6 | 25 | 0.0 | 0.0 | 0.00 | 0.00 | 0.00 | 32 | 1013.8 |
| 20260506093004 | 7 | 25 | 0.0 | 0.0 | 0.00 | 0.00 | 0.00 | 37 | 1013.7 |
| 20260506091505 | 7 | 42 | 0.0 | 0.0 | 0.00 | 0.00 | 0.00 | 40 | 1013.7 |
| 20260506090107 | 7 | 43 | 0.0 | 0.0 | 0.00 | 0.00 | 0.00 | 44 | 1013.5 |
| 20260506084606 | 7 | 42 | 0.0 | 0.0 | 0.00 | 0.00 | 0.00 | 47 | 1013.7 |
| 20260506083057 | 7 | 43 | 0.0 | 0.0 | 0.00 | 0.00 | 0.00 | 49 | 1013.5 |
| 20260506081554 | 7 | 43 | 0.0 | 0.0 | 0.00 | 0.00 | 0.00 | 50 | 1013.4 |
| 20260506073048 | 8 | 11 | 0.0 | 3.2 | 0.00 | 0.00 | 0.00 | 50 | 1013.2 |
| 20260506071546 | 8 | 13 | 0.0 | 0.0 | 0.00 | 0.00 | 0.00 | 51 | 1013.0 |
| 20260506061543 | 9 | 348 | 0.0 | 4.8 | 0.00 | 0.00 | 0.00 | 50 | 1013.0 |
| 20260506044523 | 11 | 314 | 0.0 | 0.0 | 0.00 | 0.00 | 0.00 | 47 | 1012.3 |
| 20260506043018 | 11 | 311 | 0.0 | 0.0 | 0.00 | 0.00 | 0.00 | 47 | 1012.2 |
| 20260506041512 | 11 | 306 | 0.0 | 0.0 | 0.00 | 0.00 | 0.00 | 48 | 1012.5 |
| 20260506040010 | 11 | 304 | 0.0 | 0.0 | 0.00 | 0.00 | 0.00 | 47 | 1012.6 |
| 20260506034514 | 12 | 302 | 0.0 | 0.0 | 0.00 | 0.00 | 0.00 | 46 | 1012.3 |
| 20260506033100 | 12 | 360 | 0.0 | 0.0 | 0.00 | 0.00 | 0.00 | 47 | 1012.3 |
| 20260506031604 | 12 | 360 | 0.0 | 0.0 | 0.00 | 0.00 | 0.00 | 47 | 1012.1 |
| 20260506030051 | 12 | 360 | 0.0 | 0.0 | 0.00 | 0.00 | 0.00 | 47 | 1011.8 |
| 20260506024606 | 12 | 360 | 0.0 | 0.0 | 0.00 | 0.00 | 0.00 | 46 | 1011.7 |
| 20260506023042 | 12 | 299 | 0.0 | 0.0 | 0.00 | 0.00 | 0.00 | 46 | 1011.8 |
| 20260506021538 | 12 | 299 | 0.0 | 0.0 | 0.00 | 0.00 | 0.00 | 45 | 1011.7 |
| 20260506020033 | 12 | 299 | 0.0 | 0.0 | 0.00 | 0.00 | 0.00 | 45 | 1011.5 |
| 20260506014531 | 12 | 300 | 0.0 | 0.0 | 0.00 | 0.00 | 0.00 | 45 | 1011.1 |
| 20260506013037 | 12 | 299 | 0.0 | 0.0 | 0.00 | 0.00 | 0.00 | 43 | 1011.1 |
| 20260506011520 | 12 | 303 | 0.0 | 0.0 | 0.00 | 0.00 | 0.00 | 44 | 1010.8 |
| 20260506010020 | 13 | 360 | 0.0 | 0.0 | 0.00 | 0.00 | 0.00 | 42 | 1010.8 |
| 20260506004512 | 13 | 360 | 0.0 | 4.8 | 0.00 | 0.00 | 0.00 | 42 | 1010.6 |
| 20260506003008 | 13 | 360 | 0.0 | 3.2 | 0.00 | 0.00 | 0.00 | 41 | 1010.6 |
| 20260506001503 | 13 | 302 | 0.0 | 12.9 | 0.00 | 0.00 | 0.00 | 40 | 1010.2 |
| 20260506000101 | 13 | 360 | 0.0 | 17.7 | 0.00 | 0.00 | 0.00 | 40 | 1010.6 |
| 20260505234556 | 13 | 360 | 4.8 | 16.1 | 0.00 | 0.00 | 0.00 | 38 | 1010.4 |
| 20260505233050 | 13 | 312 | 6.4 | 16.1 | 0.00 | 0.00 | 0.00 | 38 | 1010.4 |
| 20260505231546 | 13 | 308 | 1.6 | 20.9 | 0.00 | 0.00 | 0.00 | 39 | 1010.5 |
| 20260505230054 | 13 | 306 | 4.8 | 17.7 | 0.00 | 0.00 | 0.00 | 37 | 1010.5 |
| 20260505224536 | 13 | 355 | 3.2 | 16.1 | 0.00 | 0.00 | 0.00 | 37 | 1010.6 |
| 20260505223036 | 14 | 319 | 1.6 | 22.5 | 0.00 | 0.00 | 0.00 | 36 | 1010.8 |
| 20260505221533 | 14 | 360 | 9.7 | 25.7 | 0.00 | 0.00 | 0.00 | 37 | 1010.7 |
| 20260505220023 | 14 | 360 | 1.6 | 20.9 | 0.00 | 0.00 | 0.00 | 36 | 1010.6 |
| 20260505214520 | 13 | 360 | 4.8 | 24.1 | 0.00 | 0.00 | 0.00 | 35 | 1010.9 |
| 20260505213014 | 13 | 360 | 14.5 | 24.1 | 0.00 | 0.00 | 0.00 | 34 | 1010.8 |
| 20260505211511 | 14 | 360 | 11.3 | 22.5 | 0.00 | 0.00 | 0.00 | 34 | 1010.9 |
| 20260505210006 | 13 | 360 | 3.2 | 22.5 | 0.00 | 0.00 | 0.00 | 34 | 1010.8 |
| 20260505204502 | 13 | 360 | 11.3 | 20.9 | 0.00 | 0.00 | 0.00 | 33 | 1011.0 |
| 20260505203116 | 13 | 360 | 12.9 | 22.5 | 0.00 | 0.00 | 0.00 | 33 | 1011.0 |
| 20260505201554 | 14 | 360 | 4.8 | 22.5 | 0.00 | 0.00 | 0.00 | 34 | 1011.1 |
| 20260505200050 | 14 | 360 | 11.3 | 24.1 | 0.00 | 0.00 | 0.00 | 34 | 1011.0 |
| 20260505194555 | 14 | 360 | 9.7 | 22.5 | 0.00 | 0.00 | 0.00 | 34 | 1011.1 |
| 20260505193040 | 14 | 360 | 8.0 | 24.1 | 0.00 | 0.00 | 0.00 | 33 | 1011.0 |
| 20260505191535 | 14 | 360 | 12.9 | 22.5 | 0.00 | 0.00 | 0.00 | 33 | 1011.2 |
| 20260505190031 | 13 | 360 | 11.3 | 24.1 | 0.00 | 0.00 | 0.00 | 34 | 1011.4 |
| 20260505184527 | 13 | 311 | 9.7 | 20.9 | 0.00 | 0.00 | 0.00 | 34 | 1011.2 |
| 20260505183022 | 14 | 360 | 8.0 | 24.1 | 0.00 | 0.00 | 0.00 | 36 | 1011.3 |
| 20260505181518 | 13 | 360 | 12.9 | 22.5 | 0.00 | 0.00 | 0.00 | 37 | 1011.2 |
| 20260505180016 | 13 | 360 | 14.5 | 27.4 | 0.00 | 0.00 | 0.00 | 36 | 1011.2 |
| 20260505174514 | 14 | 326 | 9.7 | 19.3 | 0.00 | 0.00 | 0.00 | 38 | 1011.2 |
| 20260505173014 | 13 | 312 | 9.7 | 27.4 | 0.00 | 0.00 | 0.00 | 37 | 1011.0 |
| 20260505171600 | 14 | 360 | 0.0 | 17.7 | 0.00 | 0.00 | 0.00 | 37 | 1010.9 |
| 20260505170057 | 14 | 315 | 6.4 | 22.5 | 0.00 | 0.00 | 0.00 | 36 | 1010.6 |
| 20260505164600 | 15 | 360 | 4.8 | 24.1 | 0.00 | 0.00 | 0.00 | 36 | 1010.6 |
| 20260505163054 | 14 | 360 | 6.4 | 22.5 | 0.00 | 0.00 | 0.00 | 36 | 1010.6 |
| 20260505161545 | 14 | 332 | 1.6 | 16.1 | 0.00 | 0.00 | 0.00 | 38 | 1010.9 |